Tracking 28790 objects as of 19-Apr-2024
HD Live streaming from Space Station
objects crossing your sky now

STARLINK-5427

Track STARLINK-5427 now!
10-day predictions
STARLINK-5427 is classified as:


NORAD ID: 54853
Int'l Code: 2022-177AK
Perigee: 565.2 km
Apogee: 567.3 km
Inclination: 43.0 °
Period: 95.8 minutes
Semi major axis: 6937 km
RCS: Unknown
Launch date: December 28, 2022
Source: United States (US)
Launch site: AIR FORCE EASTERN TEST RANGE (AFETR)
Your satellite tracking list
Your tracking list is empty




NASA's NSSDC Master Catalog

Two Line Element Set (TLE):
1 54853U 22177AK  24109.78938762 -.00001811  00000-0 -11901-3 0  9998
2 54853  43.0026 269.2801 0001547 248.9393 111.1283 15.02528139 73323
Source of the keplerian elements: AFSPC